Location: Bear Valley
(38.4650°N, 120.0390°W)
Time: 18:56:42
(UTC-07:00)

Tiangong 2 - Visible Passes

Search period start: 18 March 2019 00:00
Search period end: 28 March 2019 00:00
Orbit: 379 x 390 km, 42.8° (Epoch: 18 March)

Date Brightness Start Highest point End Pass type
(mag) Time Alt. Az. Time Alt. Az. Time Alt. Az.
18 Mar 4.6 04:33:54 12° ENE 04:33:54 12° ENE 04:34:13 10° ENE visible
18 Mar 2.0 06:06:07 16° WNW 06:08:20 43° N 06:11:24 10° E visible
19 Mar 2.7 05:09:24 32° NE 05:09:24 32° NE 05:11:44 10° ENE visible
20 Mar 1.4 05:44:58 31° NW 05:46:13 60° NNE 05:49:21 10° E visible
21 Mar 3.7 04:48:23 22° ENE 04:48:23 22° ENE 04:49:43 10° E visible
21 Mar 1.4 06:20:37 11° WNW 06:23:29 50° SSW 06:26:33 10° SE visible
22 Mar 1.0 05:24:08 82° SE 05:24:08 82° SE 05:27:11 10° ESE visible
23 Mar 2.2 06:00:01 22° WSW 06:01:07 27° SSW 06:03:52 10° SSE visible
24 Mar 3.4 05:03:49 18° SE 05:03:49 18° SE 05:04:46 10° SE visible
25 Mar 3.5 05:40:04 12° S 05:40:04 12° S 05:40:35 10° S visible
